FW1340 Weather Reports


time (UTC)temp
C
wind
direction
speed
KPH
gust
KPH
rain 1hr
cm
rain 24hr
cm
rain mn
cm
humidity
%
barometer
mb
20260901200001 23 265 0.0 0.0 0.00 0.00 0.00 51 1015.7
20260901194600 23 243 0.0 0.0 0.00 0.00 0.00 50 1015.8
20260901193108 23 275 0.0 0.0 0.00 0.00 0.00 52 1015.9
20260901191552 22 290 0.0 0.0 0.00 0.00 0.00 55 1016.1
20260901190050 22 238 0.0 0.0 0.00 0.00 0.00 54 1016.2
20260901184555 21 252 0.0 0.0 0.00 0.00 0.00 55 1016.3
20260901183046 21 259 0.0 0.0 0.00 0.00 0.00 56 1016.4
20260901181546 21 290 0.0 0.0 0.00 0.00 0.00 55 1016.4
20260901180043 21 259 0.0 0.0 0.00 0.00 0.00 57 1016.4
20260901174543 21 254 0.0 0.0 0.00 0.00 0.00 57 1016.3
20260901173040 21 304 0.0 0.0 0.00 0.00 0.00 56 1016.3
20260901171538 21 232 0.0 0.0 0.00 0.00 0.00 58 1016.1
20260901170032 20 253 0.0 0.0 0.00 0.00 0.00 62 1016.2
20260901164529 20 265 0.0 0.0 0.00 0.00 0.00 63 1016.1
20260901163026 19 259 0.0 0.0 0.00 0.00 0.00 65 1016.0
20260901161535 18 252 0.0 0.0 0.00 0.00 0.00 67 1016.0
20260901160033 18 236 0.0 0.0 0.00 0.00 0.00 69 1015.9
20260901154513 17 194 0.0 0.0 0.00 0.00 0.00 72 1015.8
20260901153007 16 164 0.0 0.0 0.00 0.00 0.00 75 1015.7
20260901151503 15 147 0.0 0.0 0.00 0.00 0.00 80 1015.5
20260901150002 14 133 0.0 0.0 0.00 0.00 0.00 84 1015.4
20260901144600 13 124 0.0 0.0 0.00 0.00 0.00 88 1015.3
20260901143058 12 148 0.0 0.0 0.00 0.00 0.00 91 1015.2
20260901141554 11 144 0.0 0.0 0.00 0.00 0.00 92 1014.9
20260901140048 10 139 0.0 0.0 0.00 0.00 0.00 91 1014.6
20260901134601 10 115 0.0 0.0 0.00 0.00 0.00 90 1014.4
20260901133045 10 125 0.0 0.0 0.00 0.00 0.00 90 1014.3
20260901131542 10 123 0.0 0.0 0.00 0.00 0.00 89 1014.3
20260901130040 10 127 0.0 0.0 0.00 0.00 0.00 89 1014.1
20260901124550 10 136 0.0 0.0 0.00 0.00 0.00 88 1013.9
20260901123038 10 132 0.0 0.0 0.00 0.00 0.00 88 1013.9
20260901121536 11 146 0.0 0.0 0.00 0.00 0.00 89 1013.9
20260901120049 10 159 0.0 0.0 0.00 0.00 0.00 87 1013.9
20260901114539 11 191 0.0 0.0 0.00 0.00 0.00 87 1013.9
20260901113053 11 126 0.0 0.0 0.00 0.00 0.00 86 1013.6
20260901111529 11 161 0.0 0.0 0.00 0.00 0.00 85 1013.5
20260901110027 11 177 0.0 0.0 0.00 0.00 0.00 85 1013.6
20260901104528 11 163 0.0 0.0 0.00 0.00 0.00 85 1013.5
20260901103022 12 161 0.0 0.0 0.00 0.00 0.00 84 1013.4
20260901101524 12 142 0.0 0.0 0.00 0.00 0.00 83 1013.3
20260901100016 12 168 0.0 0.0 0.00 0.00 0.00 83 1013.5
20260901094516 12 184 0.0 0.0 0.00 0.00 0.00 82 1013.5
20260901093019 13 157 0.0 0.0 0.00 0.00 0.00 82 1013.4
20260901091512 13 199 0.0 0.0 0.00 0.00 0.00 82 1013.4
20260901090014 13 209 0.0 0.0 0.00 0.00 0.00 82 1013.5
20260901084524 13 198 0.0 0.0 0.00 0.00 0.00 81 1013.5
20260901083008 13 198 0.0 0.0 0.00 0.00 0.00 81 1013.5
20260901081505 13 218 0.0 0.0 0.00 0.00 0.00 81 1013.6
20260901080004 13 214 0.0 0.0 0.00 0.00 0.00 80 1013.7
20260901074501 14 215 0.0 0.0 0.00 0.00 0.00 80 1013.5
20260901073103 14 212 0.0 0.0 0.00 0.00 0.00 80 1013.4
20260901071555 15 216 0.0 0.0 0.00 0.00 0.00 79 1013.4
20260901070100 15 241 0.0 0.0 0.00 0.00 0.00 78 1013.4
20260901064553 15 246 0.0 0.0 0.00 0.00 0.00 78 1013.4
20260901063051 15 258 0.0 0.0 0.00 0.00 0.00 77 1013.4
20260901061552 15 252 0.0 0.0 0.00 0.00 0.00 78 1013.4
20260901060051 15 228 0.0 0.0 0.00 0.00 0.00 78 1013.4
20260901054550 15 256 0.0 0.0 0.00 0.00 0.00 78 1013.3
20260901053105 15 272 0.0 0.0 0.00 0.00 0.00 77 1013.1
20260901051549 15 286 0.0 0.0 0.00 0.00 0.00 77 1013.1
20260901050048 15 294 0.0 0.0 0.00 0.00 0.00 77 1013.0
20260901044614 16 273 0.0 0.0 0.00 0.00 0.00 76 1013.0
20260901043046 16 248 0.0 0.0 0.00 0.00 0.00 76 1012.9
20260901041546 16 286 0.0 0.0 0.00 0.00 0.00 76 1012.8
20260901040045 16 236 0.0 0.0 0.00 0.00 0.00 76 1012.5
20260901034552 16 269 0.0 0.0 0.00 0.00 0.00 76 1012.3
20260901033046 16 260 0.0 0.0 0.00 0.00 0.00 75 1012.1
20260901031548 16 270 0.0 0.0 0.00 0.00 0.00 74 1011.9
20260901030046 17 267 0.0 0.0 0.00 0.00 0.00 73 1011.7
20260901024544 17 229 0.0 0.0 0.00 0.00 0.00 72 1011.6
20260901023043 17 248 0.0 0.0 0.00 0.00 0.00 70 1011.7
20260901021606 18 250 0.0 0.0 0.00 0.00 0.00 68 1011.6
20260901020101 19 262 0.0 0.0 0.00 0.00 0.00 66 1011.5
20260901014543 20 275 0.0 0.0 0.00 0.00 0.00 63 1011.4
20260901013043 20 265 0.0 0.0 0.00 0.00 0.00 63 1011.3
20260901011639 21 265 0.0 0.0 0.00 0.00 0.00 61 1011.2
20260901010042 21 248 0.0 0.0 0.00 0.00 0.00 58 1011.1
20260901004541 22 267 0.0 0.0 0.00 0.00 0.00 57 1011.1
20260901003043 22 269 0.0 0.0 0.00 0.00 0.00 56 1011.2
20260901001550 23 276 0.0 0.0 0.00 0.00 0.00 55 1011.2
20260901000044 23 263 0.0 0.0 0.00 0.00 0.00 54 1011.2
20260831234547 23 279 0.0 0.0 0.00 0.00 0.00 53 1011.1
20260831233044 24 268 0.0 0.0 0.00 0.00 0.00 52 1011.2
20260831231535 25 274 0.0 0.0 0.00 0.00 0.00 50 1011.2
20260831230034 25 246 0.0 0.0 0.00 0.00 0.00 50 1011.3
20260831224534 25 262 0.0 0.0 0.00 0.00 0.00 50 1011.4
20260831223034 25 236 0.0 0.0 0.00 0.00 0.00 49 1011.5
20260831221532 25 252 0.0 0.0 0.00 0.00 0.00 50 1011.5
20260831220034 25 266 0.0 0.0 0.00 0.00 0.00 51 1011.7
20260831214535 26 263 0.0 0.0 0.00 0.00 0.00 49 1011.7
20260831213037 26 309 0.0 0.0 0.00 0.00 0.00 48 1011.9
20260831211528 26 234 0.0 0.0 0.00 0.00 0.00 46 1012.1
20260831210025 25 200 0.0 0.0 0.00 0.00 0.00 47 1012.0
20260831204522 25 221 0.0 0.0 0.00 0.00 0.00 48 1012.1
20260831203019 25 263 0.0 0.0 0.00 0.00 0.00 50 1012.3
20260831201517 24 241 0.0 0.0 0.00 0.00 0.00 51 1012.3